User: anonymous   Login
Location: Unspecified
(0.0000°N, 0.0000°E)
Time: 07:48:30
(UTC+02:00)
Language:

CZ-4B DEB - Orbit

View from above orbital plane
View from above orbital plane
View from above satellite
View from above satellite

Ground track
Ground track

The orbit data is extracted from the following two-line orbital elements,

1 33411U 08053D   15088.12881366  .00039602  00000-0  17024-2 0  9991
2 33411 097.4943 109.2208 0007973 009.8080 350.3310 15.22515197351454
Epoch (UTC): 29 March 2015 03:05:29
Eccentricity: 0.0007973
inclination: 97.4943°
perigee height: 493 km
apogee height: 504 km
right ascension of ascending node: 109.2208°
argument of perigee: 9.8080°
revolutions per day: 15.22515197
mean anomaly at epoch: 350.3310°
orbit number at epoch: 35145

The dashed part of the orbit path shows where the satellite is in the earth's shadow,  

DLR